TimeEST,TemperatureF,Dew PointF,Humidity,Sea Level PressureIn,VisibilityMPH,Wind Direction,Wind SpeedMPH,Gust SpeedMPH,PrecipitationIn,Events,Conditions,WindDirDegrees,DateUTC
12:53 AM,60.8,51.8,72,29.98,10.0,WNW,9.2,-,N/A,,Clear,300,2013-02-28 05:53:00
1:53 AM,57.9,50.0,75,29.98,10.0,NW,5.8,-,N/A,,Clear,310,2013-02-28 06:53:00
2:53 AM,60.1,52.0,75,29.96,10.0,NNW,9.2,-,N/A,,Scattered Clouds,330,2013-02-28 07:53:00
3:53 AM,59.0,51.1,75,29.96,10.0,West,3.5,-,N/A,,Clear,270,2013-02-28 08:53:00
4:53 AM,53.1,48.9,86,29.97,10.0,SW,4.6,-,N/A,,Clear,220,2013-02-28 09:53:00
5:53 AM,57.0,51.1,81,29.97,10.0,NW,9.2,-,N/A,,Clear,320,2013-02-28 10:53:00
6:53 AM,55.0,50.0,83,29.99,10.0,SW,6.9,-,N/A,,Scattered Clouds,220,2013-02-28 11:53:00
7:53 AM,60.1,52.0,75,30.00,10.0,WNW,3.5,-,N/A,,Partly Cloudy,300,2013-02-28 12:53:00
8:53 AM,66.0,53.1,63,30.02,10.0,WNW,9.2,-,N/A,,Clear,300,2013-02-28 13:53:00
9:53 AM,68.0,51.1,55,30.02,10.0,NW,11.5,-,N/A,,Scattered Clouds,310,2013-02-28 14:53:00
10:53 AM,70.0,51.1,51,30.01,10.0,WNW,9.2,-,N/A,,Partly Cloudy,290,2013-02-28 15:53:00
11:53 AM,72.0,50.0,46,30.01,10.0,West,11.5,-,N/A,,Scattered Clouds,270,2013-02-28 16:53:00
12:53 PM,69.1,50.0,51,29.99,10.0,WNW,12.7,18.4,N/A,,Scattered Clouds,290,2013-02-28 17:53:00
1:53 PM,71.1,52.0,51,29.96,10.0,NW,10.4,-,N/A,,Scattered Clouds,310,2013-02-28 18:53:00
2:53 PM,72.0,48.9,44,29.95,10.0,WNW,11.5,20.7,N/A,,Partly Cloudy,300,2013-02-28 19:53:00
3:53 PM,71.6,50.0,46,29.94,10.0,WNW,11.5,-,N/A,,Clear,300,2013-02-28 20:53:00
4:53 PM,69.1,48.9,49,29.94,10.0,West,13.8,20.7,N/A,,Clear,280,2013-02-28 21:53:00
5:53 PM,66.0,51.1,59,29.96,10.0,WNW,15.0,21.9,N/A,,Clear,290,2013-02-28 22:53:00
6:53 PM,63.0,54.0,72,29.96,10.0,NW,12.7,-,N/A,,Partly Cloudy,310,2013-02-28 23:53:00
7:53 PM,61.0,48.9,64,29.99,10.0,NW,10.4,-,N/A,,Partly Cloudy,310,2013-03-01 00:53:00
8:53 PM,57.9,48.0,70,29.98,10.0,WNW,5.8,-,N/A,,Clear,300,2013-03-01 01:53:00
9:53 PM,57.0,46.0,67,29.99,10.0,WNW,4.6,-,N/A,,Clear,290,2013-03-01 02:53:00
10:53 PM,57.0,46.0,67,29.99,10.0,WNW,3.5,-,N/A,,Clear,300,2013-03-01 03:53:00
11:53 PM,57.0,45.0,64,29.98,10.0,WNW,6.9,-,N/A,,Clear,300,2013-03-01 04:53:00